Presure
139 138 135 138 136 119 141 142 133 139 125 119 121 118 130 131 132 164 158 181 184 134 133 149 127 181 174 182 178 153 142 170 147 134 126 160 126 132 126 138 164 149 160
142 143 144 134 148 122 145 132 111 117 125 116 113 115 125 119 118 135 145 163 174 154 154 151 173 160 165 123 177 155 169 141 160 167 174 128 141 170 151 170 191 137 158
129 149 147 123 128 120 125 121 135 119 121 138 117 104 127 125 134 127 129 139 151 163 174 159 145 177 168 121 152 168 185 145 110 142 193 173 162 128 196 213 170 188 143
217 161 150 137 148 116 142 153 136 142 139 113 110 145 119 130 125 138 147 142 141 168 153 146 159 166 169 136 156 146 156 174 150 166 164 159 147 160 153 184 149 133 143
139 255 203 139 119 117 143 152 126 149 125 126 138 158 124 129 139 114 136 158 186 148 163 170 133 158 169 146 156 156 191 178 160 175 155 158 155 174 147 174 135 137 138
130 154 142 130 173 186 132 141 148 136 131 129 143 128 136 140 129 127 137 146 134 142 139 141 141 161 192 158 167 178 163 151 160 163 174 176 141 155 171 169 144 175 146
120 187 145 161 166 144 112 150 116 110 149 154 139 146 137 142 135 126 140 128 137 163 176 142 132 163 134 165 161 156 148 161 181 183 183 185 158 172 181 137 171 182 167
163 261 198 215 152 153 112 187 124 128 167 137 149 147 132 131 140 137 142 132 143 175 141 141 162 147 173 170 181 170 176 208 175 183 140 142 153 137 141 125 150 168 184
196 152 227 199 191 166 150 127 196 168 158 133 145 142 157 135 124 135 150 141 140 153 134 150 143 156 175 177 153 191 171 179 181 180 187 169 181 173 165 165 166 187 183
144 230 235 147 148 174 159 149 148 150 159 155 127 161 165 136 133 159 164 145 119 147 175 145 158 184 170 177 193 177 201 179 167 183 186 189 157 176 160 143 181 187 161
213 203 192 206 195 209 137 199 159 130 188 184 202 182 149 205 157 141 132 146 188 165 191 151 153 189 184 157 198 164 174 197 185 176 201 174 186 133 137 181 182 192 193
194 222 220 146 196 128 133 158 208 134 138 154 138 146 133 140 146 145 152 146 180 148 139 198 178 170 162 144 190 171 181 202 186 174 164 185 158 171 184 132 182 185 188
218 222 183 154 209 142 159 142 139 169 176 156 142 144 140 148 143 149 151 154 155 187 186 196 186 172 185 174 186 181 176 165 187 189 174 187 184 179 186 171 184 184 180
158 149 150 147 149 151 149 156 152 177 194 186 185 211 194 185 158 173 184 175 202 167 180 204 150 146 188 169 186 191 172 169 182 179 191 200 190 170 173 175 188 176 181
207 208 199 202 204 155 161 203 173 152 163 201 154 149 173 193 154 173 156 195 161 188 157 159 160 153 177 175 179 172 191 179 181 186 177 176 162 196 166 175 173 177 156
171 183 212 214 212 183 160 156 187 178 209 197 170 206 201 192 186 176 194 190 180 160 181 158 196 177 182 168 192 172 188 192 182 180 192 185 190 173 189 190 187 165 192
206 200 222 212 173 195 198 192 204 172 171 194 198 183 179 196 170 187 189 186 174 198 190 197 190 177 193 185 183 176 169 171 192 172 175 174 183 186 162 163 178 182 163
217 211 201 183 208 166 195 170 176 198 165 178 209 167 186 178 213 173 168 168 198 200 169 175 193 157 192 177 180 169 173 203 153 189 180 195 183 151 161 160 194 194 217
195 196 201 195 208 208 193 204 197 215 178 178 186 187 210 180 163 188 205 166 176 204 172 199 165 163 183 195 186 191 191 167 166 150 191 172 164 175 151 206 222 179 167
222 224 213 195 176 190 185 189 199 187 186 186 198 199 193 195 195 196 210 185 201 182 184 186 152 150 192 185 190 199 162 185 210 184 173 205 195 164 180 240 196 232 160
223 209 207 217 220 211 212 209 210 213 199 204 211 203 196 190 196 192 190 183 191 194 208 181 168 189 183 203 186 195 198 229 189 183 192 208 191 190 243 208 193 215 207
227 205 208 216 197 204 205 204 213 216 192 189 187 182 224 200 197 214 205 201 200 191 201 177 182 190 194 205 207 193 211 244 178 175 192 210 216 194 199 222 198 212 181
246 233 216 212 222 186 201 212 192 207 203 202 204 209 209 204 203 212 204 195 200 198 190 190 207 190 192 205 198 178 184 240 207 200 218 236 216 199 205 223 205 194 198
266 240 232 225 225 216 223 189 204 216 219 209 209 237 193 189 207 212 208 209 202 203 210 205 214 190 188 201 172 217 209 208 229 215 218 189 199 200 198 204 203 200 195
245 244 237 257 224 259 237 215 226 246 231 214 230 197 216 196 197 218 197 206 202 220 207 210 200 197 195 196 209 204 196 217 201 182 204 204 211 208 207 214 199 198 208
232 214 177 256 335 265 171 273 253 244 249 217 228 231 217 228 226 228 225 232 234 203 213 211 213 225 207 207 232 208 213 222 228 206 216 192 196 189 180 192 215 201 181
Wind_Speed
52 48 45 43 45 37 48 48 44 48 38 37 33 34 37 40 41 50 52 57 62 44 51 50 50 48 54 52 53 49 53 47 51 62 62 52 61 65 56 71 64 53 66
55 56 53 49 59 38 50 46 45 44 40 39 41 42 37 37 40 45 44 48 55 42 40 43 51 46 49 54 50 44 47 52 47 52 49 68 68 55 57 52 57 68 66
47 61 62 47 43 43 38 46 50 45 40 54 40 48 40 44 49 43 46 47 46 42 52 42 45 52 49 55 46 48 59 51 55 56 54 52 59 68 61 64 63 59 74
67 66 67 53 63 48 52 63 52 60 57 49 50 61 45 43 41 49 50 49 46 52 42 40 50 52 51 51 49 59 52 54 51 51 50 48 61 56 66 58 72 70 79
56 69 68 58 51 50 60 67 49 65 49 44 54 64 44 44 53 56 47 57 71 42 57 56 56 51 53 53 52 53 58 55 52 56 54 47 56 60 61 53 75 66 77
55 65 65 58 71 70 54 67 68 52 52 51 66 48 58 59 43 42 49 53 44 43 47 57 51 56 59 55 57 61 55 51 54 54 56 55 68 61 53 59 74 54 80
56 72 68 74 76 69 59 74 60 65 75 78 67 70 60 61 58 52 56 47 50 57 67 45 62 59 61 62 57 55 54 52 61 59 62 62 58 56 63 73 50 70 56
67 69 81 78 75 76 65 77 57 64 83 60 77 73 68 57 65 58 58 56 57 75 49 57 60 60 67 65 66 59 60 66 59 63 72 72 76 67 72 71 67 62 76
65 72 86 73 81 76 72 61 81 77 80 65 72 67 82 60 56 59 70 60 53 66 59 57 66 60 72 73 52 70 62 65 64 60 64 49 64 61 56 49 74 81 72
70 75 77 68 66 80 79 69 73 67 77 77 53 85 86 63 59 77 79 66 67 67 83 67 64 78 72 73 71 68 69 70 56 67 70 68 67 61 65 83 75 80 73
79 82 79 82 86 88 64 87 82 68 79 86 85 81 72 88 74 67 64 68 89 82 90 61 63 87 85 55 78 59 75 76 75 61 76 55 71 78 83 73 76 83 87
75 82 82 69 75 61 62 74 90 65 68 78 66 72 69 67 70 68 73 72 92 64 74 87 92 79 67 66 85 74 79 79 77 65 82 71 71 53 77 80 82 84 86
78 72 77 75 81 69 76 69 71 77 86 75 73 75 71 77 69 72 74 78 79 97 89 94 94 75 90 77 82 84 72 56 86 76 70 84 81 70 84 63 85 84 80
77 75 73 71 73 74 74 76 77 90 98 96 94 99 98 98 86 95 101 96 103 91 98 92 73 75 91 79 92 89 70 70 86 79 95 93 91 73 66 69 94 74 85
79 82 94 99 102 80 84 104 87 79 89 101 82 78 91 102 83 95 92 106 86 100 78 78 79 79 96 81 87 78 94 85 85 89 73 79 67 102 68 75 71 80 78
84 85 95 102 101 90 87 87 99 97 107 107 87 103 101 104 104 97 93 104 89 82 95 78 100 96 95 83 95 82 100 102 91 92 105 98 100 80 102 107 99 67 104
84 86 93 96 94 102 106 104 109 98 96 110 107 104 100 112 96 108 102 104 100 104 100 102 101 96 104 107 105 96 84 89 111 90 97 93 102 106 71 71 105 97 72
90 93 97 95 105 96 106 98 101 116 94 106 114 93 108 107 112 97 90 91 109 106 90 93 107 80 109 94 97 86 92 116 76 110 102 112 100 69 74 70 108 108 88
92 97 101 104 110 112 112 117 115 120 113 114 120 117 125 105 89 115 114 91 99 110 99 120 90 82 104 115 105 110 113 86 85 75 113 92 87 103 71 111 87 95 71
102 107 111 106 108 111 111 114 122 114 115 117 127 126 114 121 124 119 120 115 120 111 115 112 86 83 113 108 113 119 83 107 122 109 97 117 113 90 107 93 95 93 81
102 104 109 111 124 121 125 126 131 132 126 132 134 129 127 120 126 121 111 106 117 123 131 114 99 118 105 124 104 117 119 120 110 101 109 120 104 99 102 92 87 93 94
109 106 110 121 111 123 125 131 134 134 127 126 122 112 132 133 130 136 131 129 126 125 132 105 108 115 122 128 124 110 129 122 91 95 105 111 102 93 92 106 92 100 88
110 127 124 124 128 113 128 136 121 137 132 132 133 139 141 138 138 139 134 128 128 129 119 120 135 122 115 129 121 102 102 119 101 107 116 99 105 98 102 113 103 94 99
93 104 127 130 139 140 143 114 131 146 149 143 124 142 121 116 143 146 142 142 138 137 141 132 140 117 108 128 97 122 113 122 113 111 111 96 104 107 100 107 106 106 103
80 88 101 111 125 135 152 137 144 151 158 137 157 121 135 121 119 150 120 129 132 142 144 146 133 130 134 127 125 124 117 122 110 99 105 116 118 116 115 118 108 107 120
90 104 94 103 114 121 90 137 155 158 159 124 148 151 137 156 158 155 153 152 145 131 153 146 142 136 139 138 126 130 132 134 120 115 118 97 105 96 90 105 128 116 90
Wind_Direction
276 275 277 266 282 274 284 283 280 288 289 290 298 298 310 307 308 287 286 285 287 290 292 298 297 298 296 300 304 298 298 306 296 306 309 306 316 313 319 311 314 323 312
271 276 278 278 277 270 280 281 283 280 281 289 290 292 305 297 296 303 299 292 290 292 291 290 302 296 301 292 308 301 303 293 304 317 311 308 297 314 311 319 329 315 308
268 270 273 276 276 268 274 277 279 277 280 287 289 287 302 298 305 302 300 303 297 298 292 295 293 300 300 290 295 308 307 292 315 306 310 314 316 310 328 318 315 331 310
256 264 268 272 275 270 278 273 282 282 285 280 283 289 291 299 297 301 296 303 299 293 297 293 298 298 302 292 296 307 297 304 291 308 306 303 291 308 300 332 310 314 308
279 241 251 275 270 267 278 274 274 278 274 280 287 282 294 295 298 290 305 296 281 296 288 296 288 296 296 291 296 296 305 303 297 302 295 300 307 314 304 324 305 316 312
279 264 275 276 261 260 271 273 277 279 281 283 283 289 289 290 298 293 305 302 289 294 290 286 289 302 288 295 298 300 299 290 298 298 300 304 287 304 316 315 311 324 302
274 264 274 260 261 274 280 272 275 278 279 277 282 282 290 287 296 288 298 285 292 301 293 283 284 297 287 296 298 293 283 296 304 301 300 300 288 316 322 301 316 329 302
269 237 263 242 263 264 275 260 276 273 268 276 278 280 284 285 291 295 295 288 295 286 281 283 295 287 293 297 293 298 298 302 300 302 287 298 291 289 295 308 309 324 329
258 277 240 248 251 263 268 275 259 268 271 272 278 278 277 292 281 295 290 294 291 297 277 289 286 294 293 297 284 293 300 302 299 300 300 297 310 311 297 297 302 327 329
277 236 239 269 264 262 263 272 273 273 271 270 279 272 274 287 291 284 282 292 279 291 285 279 295 289 295 296 293 297 298 299 294 301 306 298 290 298 303 288 323 324 295
251 254 258 248 257 249 274 255 264 271 262 264 260 267 277 261 283 286 282 289 280 288 282 288 288 290 294 283 293 295 301 297 306 303 299 304 306 291 292 317 320 322 323
253 243 244 273 252 266 271 269 257 278 279 273 283 283 280 285 284 284 284 288 284 286 281 279 287 288 293 277 294 295 302 292 302 289 293 299 281 295 313 294 316 317 319
241 239 260 272 247 272 270 275 275 267 265 275 282 282 284 285 283 287 286 286 286 279 281 278 281 286 288 284 290 299 298 286 302 295 303 304 304 302 314 295 315 314 305
271 278 278 278 278 277 277 274 274 267 263 267 269 261 265 274 283 280 277 282 270 286 282 278 274 274 288 294 295 293 294 297 305 290 302 300 306 297 297 307 308 298 307
242 242 253 251 254 278 274 260 269 275 269 261 276 281 272 267 284 277 276 271 284 278 281 283 280 276 293 293 296 295 292 300 301 305 303 299 278 303 286 302 301 303 278
267 260 242 246 251 265 277 280 269 273 263 269 275 268 268 269 272 277 274 275 277 286 282 281 281 288 285 291 289 292 294 293 295 301 298 303 303 297 306 307 301 283 307
246 249 241 245 271 259 259 262 256 275 279 268 269 277 278 272 282 276 277 277 283 276 278 273 279 289 279 284 287 293 296 298 292 299 303 301 300 302 288 291 302 303 286
234 239 249 262 246 275 257 274 273 259 277 275 264 278 273 277 269 282 283 283 272 272 280 284 276 279 276 290 287 289 293 285 284 290 295 292 299 283 287 286 301 301 300
256 254 249 257 248 248 261 254 260 254 275 276 271 272 262 275 277 273 267 280 278 268 282 274 275 276 285 280 287 284 286 286 285 281 292 294 289 296 278 294 296 293 282
236 235 243 256 270 262 267 265 258 264 266 269 265 266 267 269 270 270 264 277 266 269 272 281 274 275 280 286 285 282 280 283 281 290 289 288 293 286 288 301 288 303 288
238 249 250 248 244 250 252 253 254 257 263 260 259 264 270 272 267 272 270 274 275 272 266 278 271 280 283 278 283 283 285 279 285 286 290 290 291 286 303 293 285 301 303
239 256 254 246 263 257 258 258 255 256 266 269 270 266 261 269 271 265 265 268 270 276 271 276 280 276 282 280 282 284 287 283 277 277 284 293 295 285 289 306 295 304 283
251 242 249 253 248 262 260 254 260 258 262 262 264 263 263 265 267 265 265 274 271 274 276 278 272 279 276 279 280 278 278 290 283 290 296 288 298 289 299 301 297 297 303
263 257 252 252 252 254 252 263 257 257 256 262 263 260 265 267 266 265 267 267 269 270 270 274 273 273 276 282 274 285 286 292 286 289 292 284 290 296 297 297 298 298 298
268 265 262 261 257 259 253 259 259 256 255 262 257 263 261 265 266 263 270 268 270 268 274 276 275 275 278 279 282 284 283 282 286 283 286 294 290 292 293 296 298 293 297
266 266 279 267 278 255 278 255 255 255 254 263 260 260 261 261 261 262 264 264 265 269 272 274 276 274 280 281 271 282 283 282 278 286 285 285 286 283 283 290 292 293 288